STARLINK-34851, 66447

Orbit data source: Space-Track

STARLINK-34851, 66447 is a payload satellite owned by SpaceX/Seattle (US) in LEO that was launched on Tue, 11 Nov 2025 UTC via an FALCON 9 launch vehicle from the Air Force Eastern Test Range (AFETR). Payload-class satellites include a variety of spacecraft equipped with specific instruments for various scientific and technological missions. These include communications satellites like Starlink; space stations such as the ISS; scientific satellites like the Hubble; Earth observation satellites from companies like Planet Labs, Umbra, and HawkEye 360; GPS; miniature CubeSats for education and research; and military/defense satellites.

Loading next visibility...
Identifier
66447, 2025-259AB
Orbit
LEO
Country
Flag of USUS
Related business
Manufacturer
SpaceX/Seattle
Mission
Operational Commercial Communications
Bus & Motor
STARLINK V2MO, Unknown motor
Mass
575 kg wet, ~530 kg dry
Launch date (UTC)
2025-11-11 (7 months ago)
Launch vehicle
FALCON 9
Launch site
Air Force Eastern Test Range (AFETR)
Object type
Payload
Rocket body
Debris
Shape & HBR
Box + 2 Pan, 17.7 m
Radar Cross Section
36.964 m², Large (>1 m²)

Expand to show TLE details & history
Last TLE update: 2 days ago

TLE from 2 days ago
0 STARLINK-34851
1 66447U 25259AB  26149.09696509  .00029521  00000-0  10797-2 0  9991
2 66447  42.9965 180.6649 0000065 122.7087 237.3771 15.27529502 31671
Epoch: 2026-05-29T02:19Z
TLE epoch observation values (Epoch: 2026-05-29T02:19:37.783Z)
Latitude
-0.00002°
Longitude
-100.87479°
Altitude
482.999 km
Speed
7.626 km/s
True Right ascension
12h 02m 39s
True Declination
0° 00' 00"
Sunlit
Object was in full shadow at epoch
Visualization orbit readout
Latitude
Unknown
Longitude
Unknown
Altitude
Unknown
Speed
Unknown
Apparent Right ascension
Unknown
Apparent Declination
Unknown
Sunlit
N/A
Visualization observer readout
Local Sidereal Time
02:00:27
Azimuth
Unknown
Elevation
Unknown
Doppler factor
Unknown
Orbital elements
Apogee altitude
485.191 km
Perigee altitude
485.101 km
Semi-major axis
6,863.283 km
Eccentricity
0.00001
Inclination
42.9965°
RAAN
180.6649°
Arg. of periapsis
122.7087°
True anomaly
237.37647°
Mean anomaly
237.3771°
Eccentric anomaly
237.37679°
Mean motion
3.8172 °/min
Orbital period
94.31 mins
BSTAR
0.0010797
Loading maneuver chart data...
Computing Atmospheric mass density...
Loading historical data...
Loading historical data...
Loading historical data...
Loading historical data...
Loading historical data...
Loading historical data...
Loading historical data...

Documentation

Showing up to 5 results
|